Content
SEND FEEDBACK

Daily
Averages
Monthly
Summary
United States of America

PARLIN, COLORADO


Home > North America > United States > Colorado
Elevation: 8446 feet     Latitude: 38 26N     Longitude: 106 46W

WEATHER
 
SELECT A DAY
Number of Records: 454,892;   Date Range: 1/1/95 - 10/23/14
 
SHARE

PRINT THIS DATA

[ ← Previous Day ]
WEATHER ALMANAC - JANUARY 23, 2013
[ Next Day → ]
[ °C ]   °F
Weather ElementAverageHighLow
Temperature-0.1 °F19.4 °F (4:35 pm)-18.4 °F (6:55 am)
Dewpoint-7.9 °F3.2 °F (3:55 pm)-29.2 °F (3:35 am)
Humidity56.2 %92 % (9:55 pm)29 % (10:35 am)
Barometer30.53 in30.61 in (7:35 am)30.45 in (5:15 pm)
Wind Speed0.8 mph5.8 mph (4:15 pm)
Weather ElementAverage
Visibility9.9 mi
Wind DirectionNNE (16.4 °)

Weather ElementTotal
Precipitation---
Heating Degree Days64.5 (Base 65)
Averaged from 66 records on January 23, 2013
WEATHER CONDITIONS BREAKOUT
WIND DIRECTION BREAKOUT
WEATHER BY HOUR - JANUARY 23, 2013
[ °C ]   °F
Local TimeTemperatureDewpointHumidityBarometerVisibilityWind DirectionWind SpeedGust SpeedPrecipitationEventsConditions
12:55 AM-9.4 °F-23.8 °F49 %30.54 in10.0 miCalmClear
1:15 AM-7.6 °F0.0 °F30.54 in8.0 miCalmClear
1:35 AM-11.2 °F0.0 °F30.54 in10.0 miCalmClear
1:55 AM-13.0 °F0.0 °F30.55 in10.0 miCalmClear
2:15 AM-11.2 °F0.0 °F30.55 in10.0 miCalmClear
2:55 AM-11.2 °F0.0 °F30.56 in10.0 miCalmClear
3:15 AM-14.8 °F0.0 °F30.56 in10.0 miCalmClear
3:35 AM-13.0 °F-29.2 °F44 %30.57 in10.0 miCalmClear
4:15 AM-11.2 °F-27.4 °F45 %30.57 in10.0 miCalmClear
4:35 AM-16.6 °F0.0 °F30.57 in10.0 miCalmClear
4:55 AM-14.8 °F-27.4 °F53 %30.57 in10.0 miCalmClear
5:15 AM-14.8 °F-25.6 °F58 %30.58 in10.0 miENE (60°)3.5 mphClear
5:35 AM-16.6 °F0.0 °F30.58 in10.0 miCalmClear
5:55 AM-14.8 °F-25.6 °F58 %30.59 in10.0 miCalmClear
6:15 AM-14.8 °F-23.8 °F64 %30.59 in9.0 miCalmClear
6:35 AM-16.6 °F0.0 °F30.60 in10.0 miCalmClear
6:55 AM-18.4 °F0.0 °F30.60 in10.0 miCalmClear
7:15 AM-18.4 °F-29.2 °F58 %30.60 in10.0 miCalmClear
7:35 AM-16.6 °F-20.2 °F84 %30.61 in10.0 miCalmClear
7:55 AM-16.6 °F-29.2 °F53 %30.61 in10.0 miCalmClear
8:15 AM-18.4 °F0.0 °F30.60 in10.0 miCalmClear
8:35 AM-16.6 °F-27.4 °F58 %30.61 in9.0 miCalmClear
8:55 AM-16.6 °F-23.8 °F70 %30.61 in10.0 miCalmClear
9:15 AM-13.0 °F-20.2 °F70 %30.61 in10.0 miCalmClear
9:35 AM-9.4 °F0.0 °F30.61 in10.0 miCalmClear
9:55 AM-7.6 °F0.0 °F30.60 in10.0 miCalmClear
10:15 AM-7.6 °F0.0 °F30.60 in9.0 miEast (100°)3.5 mphClear
10:35 AM-4.0 °F-29.2 °F29 %30.59 in10.0 miEast (80°)4.6 mphClear
10:55 AM-0.4 °F-23.8 °F32 %30.58 in10.0 miCalmClear
11:15 AM-0.4 °F-22.0 °F36 %30.57 in10.0 miCalmClear
11:35 AM1.4 °F-14.8 °F47 %30.56 in10.0 miCalmClear
11:55 AM5.0 °F-4.0 °F66 %30.55 in10.0 miCalmClear
12:15 PM10.4 °F-5.8 °F48 %30.53 in10.0 miCalmClear
12:35 PM8.6 °F-2.2 °F62 %30.52 in10.0 miCalmClear
12:55 PM10.4 °F-5.8 °F48 %30.52 in10.0 miCalmClear
1:15 PM12.2 °F-4.0 °F48 %30.51 in10.0 miCalmClear
1:35 PM12.2 °F-5.8 °F45 %30.50 in10.0 miCalmClear
1:55 PM15.8 °F-7.6 °F35 %30.49 in10.0 miCalmClear
2:15 PM15.8 °F-9.4 °F32 %30.49 in10.0 miEast (80°)4.6 mphClear
2:35 PM15.8 °F-7.6 °F35 %30.49 in10.0 miEast (90°)3.5 mphClear
2:55 PM17.6 °F0.0 °F30.48 in10.0 miEast (80°)3.5 mphClear
3:15 PM15.8 °F-9.4 °F32 %30.48 in10.0 miCalmClear
3:35 PM15.8 °F-0.4 °F49 %30.47 in10.0 miCalmClear
3:55 PM17.6 °F3.2 °F53 %30.47 in10.0 miNNE (20°)4.6 mphClear
4:15 PM17.6 °F1.4 °F49 %30.47 in10.0 miNNE (20°)5.8 mphClear
4:35 PM19.4 °F1.4 °F46 %30.46 in10.0 miCalmClear
4:55 PM17.6 °F-0.4 °F45 %30.46 in10.0 miCalmClear
5:15 PM15.8 °F-0.4 °F49 %30.45 in10.0 miCalmClear
5:35 PM12.2 °F-2.2 °F53 %30.45 in10.0 miCalmClear
5:55 PM12.2 °F-2.2 °F53 %30.46 in10.0 miCalmClear
6:15 PM10.4 °F-5.8 °F48 %30.47 in10.0 miCalmClear
6:35 PM10.4 °F-2.2 °F57 %30.47 in10.0 miCalmClear
7:15 PM8.6 °F-4.0 °F57 %30.47 in10.0 miNE (50°)5.8 mphClear
7:35 PM10.4 °F-0.4 °F62 %30.46 in10.0 miCalmClear
7:55 PM8.6 °F-0.4 °F67 %30.46 in10.0 miCalmClear
8:15 PM8.6 °F-2.2 °F62 %30.46 in10.0 miENE (60°)4.6 mphClear
8:35 PM6.8 °F-4.0 °F61 %30.47 in10.0 miNorth (360°)3.5 mphClear
8:55 PM6.8 °F1.4 °F79 %30.47 in10.0 miNNE (30°)3.5 mphClear
9:15 PM6.8 °F-2.2 °F67 %30.47 in10.0 miCalmClear
9:35 PM3.2 °F-5.8 °F66 %30.47 in10.0 miCalmClear
9:55 PM3.2 °F1.4 °F92 %30.47 in10.0 miCalmClear
10:15 PM3.2 °F-2.2 °F78 %30.48 in10.0 miCalmClear
10:35 PM3.2 °F-2.2 °F78 %30.48 in10.0 miCalmClear
11:15 PM1.4 °F-0.4 °F92 %30.48 in10.0 miNE (50°)3.5 mphClear
11:35 PM3.2 °F-5.8 °F66 %30.48 in10.0 miCalmClear
11:55 PM3.2 °F-2.2 °F78 %30.47 in8.0 miCalmClear
Hourly data recorded from KGUC, located miles away from Parlin, Colorado







STORIES FROM OUR PARTNERS